Content
SEND FEEDBACK

Daily
Averages
Monthly
Summary
United States of America

BATAVIA, NEW YORK


Home > North America > United States > New York
Elevation: 910 feet     Latitude: 43 01N     Longitude: 078 11W

WEATHER
 
SELECT A DAY
Number of Records: 224,298;   Date Range: 1/1/95 - 11/27/14
 
SHARE

PRINT THIS DATA

[ ← Previous Day ]
WEATHER ALMANAC - JANUARY 31, 2013
[ Next Day → ]
[ °C ]   °F
Weather ElementAverageHighLow
Temperature27.8 °F37 °F (1:54 am)21.9 °F (10:54 pm)
Dewpoint18.3 °F34 °F (1:54 am)9 °F (2:54 pm)
Humidity68.1 %93 % (3:29 am)47 % (2:54 pm)
Barometer29.42 in29.74 in (11:54 pm)29.11 in (3:29 am)
Wind Speed26.3 mph38 mph (4:25 am)
Wind Gust54.1 mph (5:54 am)
Weather ElementAverage
Visibility6.1 mi
Wind DirectionWSW (255 °)

Weather ElementTotal
Precipitation0.05 in
Heating Degree Days35.6 (Base 65)
Averaged from 40 records on January 31, 2013
WEATHER CONDITIONS BREAKOUT
WIND DIRECTION BREAKOUT
WEATHER BY HOUR - JANUARY 31, 2013
[ °C ]   °F
Local TimeTemperatureDewpointHumidityBarometerVisibilityWind DirectionWind SpeedGust SpeedPrecipitationEventsConditions
1:54 AM37.0 °F34.0 °F89 %29.14 in7.0 miSW (230°)24.2 mph42.6 mph0.03 inRainLight Rain
2:54 AM35.1 °F32.0 °F89 %29.14 in7.0 miWSW (240°)27.6 mph47.2 mph0.01 inSnowLight Snow
3:29 AM33.8 °F32.0 °F93 %29.11 in2.0 miSW (230°)29.9 mph44.9 mph0.00 inSnowLight Snow
3:54 AM34.0 °F32.0 °F92 %29.13 in3.0 miWSW (240°)31.1 mph47.2 mph0.01 inSnowLight Snow
4:25 AM35.6 °F30.2 °F81 %29.14 in7.0 miWSW (240°)38.0 mph52.9 mph0.00 inSnowLight Snow
4:54 AM34.0 °F28.0 °F79 %29.19 in9.0 miWSW (240°)26.5 mph40.3 mph0.00 inSnowLight Snow
5:54 AM32.0 °F25.0 °F75 %29.22 in8.0 miWSW (240°)31.1 mph54.1 mph0.00 inSnowLight Snow
6:54 AM30.2 °F19.4 °F64 %29.27 in7.0 miWSW (250°)31.1 mph50.6 mphSnowLight Snow
7:25 AM28.4 °F21.2 °F74 %29.30 in1.5 miWest (260°)26.5 mph43.7 mph0.00 inSnowLight Snow
7:35 AM28.4 °F21.2 °F74 %29.31 in6.0 miWest (260°)20.7 mph43.7 mph0.00 inSnowLight Snow
7:54 AM28.0 °F19.9 °F72 %29.35 in3.0 miWSW (250°)32.2 mph44.9 mph0.00 inSnowLight Snow
8:03 AM28.4 °F19.4 °F69 %29.33 in5.0 miWest (260°)26.5 mph44.9 mph0.00 inSnowLight Snow
8:45 AM28.4 °F17.6 °F64 %29.37 in2.0 miWest (260°)27.6 mph39.1 mph0.00 inSnowLight Snow
8:54 AM27.0 °F19.0 °F72 %29.39 in3.0 miWSW (250°)25.3 mph41.4 mph0.00 inSnowLight Snow
9:08 AM26.6 °F17.6 °F69 %29.39 in2.0 miWSW (250°)26.5 mph41.4 mph0.00 inSnowLight Snow
9:19 AM28.4 °F17.6 °F64 %29.39 in3.0 miWSW (250°)25.3 mph34.5 mph0.00 inSnowLight Snow
9:25 AM26.6 °F17.6 °F69 %29.40 in1.5 miWSW (250°)28.8 mph44.9 mph0.00 inSnowLight Snow
9:34 AM28.4 °F17.6 °F64 %29.40 in2.0 miWest (260°)23.0 mph44.9 mph0.00 inSnowLight Snow
9:46 AM28.4 °F15.8 °F59 %29.40 in6.0 miWSW (250°)25.3 mph44.9 mphSnowLight Snow
9:54 AM28.0 °F15.1 °F58 %29.42 in8.0 miWSW (250°)27.6 mph40.3 mph0.00 inSnowLight Snow
10:18 AM26.6 °F15.8 °F64 %29.42 in1.5 miWSW (250°)24.2 mph43.7 mph0.00 inSnowLight Snow
10:25 AM26.6 °F19.4 °F74 %29.42 in0.8 miWSW (250°)26.5 mph41.4 mph0.00 inSnowLight Snow
10:40 AM26.6 °F19.4 °F74 %29.43 in0.5 miWSW (250°)26.5 mph40.3 mph0.00 inSnowLight Snow
10:47 AM24.8 °F19.4 °F80 %29.43 in2.0 miWSW (250°)29.9 mph42.6 mph0.00 inSnowLight Snow
10:52 AM26.6 °F17.6 °F69 %29.43 in6.0 miWSW (250°)28.8 mph42.6 mph0.00 inSnowLight Snow
10:54 AM26.1 °F17.1 °F69 %29.45 in6.0 miWSW (250°)32.2 mph42.6 mph0.00 inSnowLight Snow
11:14 AM28.4 °F15.8 °F59 %29.43 in9.0 miWest (260°)34.5 mph41.4 mph0.00 inSnowLight Snow
11:54 AM28.0 °F12.0 °F51 %29.45 in9.0 miWest (270°)27.6 mph44.9 mph0.00 inMostly Cloudy
12:54 PM26.1 °F16.0 °F66 %29.50 in5.0 miWest (260°)25.3 mph38.0 mph0.00 inSnowLight Snow
1:54 PM27.0 °F10.9 °F51 %29.51 in10.0 miWest (260°)31.1 mph43.7 mph0.00 inMostly Cloudy
2:54 PM27.0 °F9.0 °F47 %29.55 in10.0 miWest (270°)27.6 mph43.7 mphMostly Cloudy
3:54 PM26.1 °F12.0 °F55 %29.58 in10.0 miWest (270°)25.3 mph38.0 mphMostly Cloudy
4:54 PM25.0 °F12.9 °F60 %29.60 in10.0 miWest (270°)26.5 mph36.8 mphMostly Cloudy
5:54 PM25.0 °F14.0 °F63 %29.64 in10.0 miWest (270°)25.3 mph32.2 mphMostly Cloudy
6:54 PM24.1 °F12.9 °F62 %29.67 in10.0 miWest (270°)18.4 mph34.5 mph0.00 inSnowLight Snow
7:54 PM23.0 °F14.0 °F68 %29.69 in10.0 miWest (270°)18.4 mph26.5 mph0.00 inOvercast
8:54 PM23.0 °F10.9 °F60 %29.70 in10.0 miWest (270°)20.7 mph29.9 mph0.00 inSnowLight Snow
9:54 PM23.0 °F10.9 °F60 %29.72 in10.0 miWest (270°)15.0 mph26.5 mph0.00 inOvercast
10:54 PM21.9 °F10.9 °F63 %29.73 in10.0 miWest (260°)17.3 mph27.6 mphMostly Cloudy
11:54 PM21.9 °F10.0 °F60 %29.74 in10.0 miWest (270°)17.3 mphMostly Cloudy
Hourly data recorded from KBUF, located miles away from Batavia, New York







STORIES FROM OUR PARTNERS